Theta_e
350 349 349 348 347 347 346 346 345 345 346 347 348 348 348 348 348 349 348 347 347 347 347 349 351 352 353 354 354 354 354 354 355 355 354 354 354 356 357 357 358 358
349 349 349 349 348 347 346 345 344 345 345 346 347 347 347 347 348 348 348 347 347 347 347 348 351 352 353 354 353 353 353 353 354 355 354 353 353 355 357 358 358 358
349 349 349 348 348 347 346 345 345 344 345 345 346 347 347 348 347 348 348 348 348 348 347 348 350 352 353 353 353 352 352 352 353 355 353 353 353 355 357 358 359 359
350 349 349 349 348 347 346 345 345 345 345 345 345 346 347 347 348 348 348 349 349 349 348 348 350 352 352 353 353 353 352 351 352 353 353 353 353 354 356 357 358 359
350 350 349 349 348 348 347 346 345 345 345 345 345 345 346 347 347 348 348 348 348 349 349 349 349 352 352 353 353 354 353 353 353 351 352 354 353 354 356 355 355 357
350 349 349 349 348 348 348 347 346 345 345 345 346 345 345 346 347 347 347 347 347 348 349 349 349 350 352 353 353 353 354 355 355 352 350 354 354 355 356 354 353 355
350 350 349 349 349 348 348 348 347 346 345 345 345 345 345 345 346 347 347 347 346 346 348 349 348 348 350 352 353 353 353 354 354 352 352 354 355 355 356 354 353 354
351 351 350 349 349 349 348 348 347 346 345 345 345 344 344 344 345 346 347 347 347 346 346 347 347 347 348 350 352 352 353 354 354 353 353 354 354 354 355 355 354 354
351 351 350 349 350 350 349 349 348 346 345 344 344 345 344 343 344 346 346 346 346 345 345 345 345 346 347 348 349 350 352 354 354 353 353 354 355 355 355 355 355 355
352 352 351 350 350 350 349 349 348 348 346 344 344 345 345 343 343 344 346 346 345 344 344 344 344 344 345 346 347 348 350 352 352 352 351 353 354 354 355 355 354 355
352 352 351 351 350 350 349 349 349 349 347 345 345 346 345 344 342 343 344 344 343 344 344 343 343 343 343 344 344 345 347 348 349 349 349 350 352 352 353 353 353 354
352 352 352 351 350 350 350 349 349 349 348 346 345 346 346 345 343 343 342 342 342 343 344 343 341 341 342 343 343 344 345 346 347 346 347 347 348 349 350 350 351 352
352 352 352 352 351 350 350 349 349 349 348 347 346 345 346 346 345 344 341 341 342 343 344 342 341 341 341 342 343 344 344 345 345 345 346 346 345 346 347 348 348 349
352 352 352 352 351 350 350 349 349 349 348 348 346 345 345 345 345 345 342 340 342 344 344 343 342 341 341 341 342 343 343 343 344 345 346 348 347 345 345 346 346 346
352 352 352 352 351 350 349 349 349 349 348 348 347 346 346 345 345 345 344 342 342 342 343 343 343 342 341 341 341 343 343 343 344 344 345 347 347 345 344 342 341 343
352 352 351 352 351 349 349 349 349 349 349 348 348 347 346 346 345 345 345 344 343 343 343 343 343 343 341 340 340 342 342 343 344 343 344 345 344 343 343 341 340 342
352 351 350 351 350 349 349 349 349 349 349 348 348 347 347 346 345 345 345 345 345 345 345 345 344 342 340 339 340 341 342 343 343 343 343 344 343 341 341 341 342 342
351 351 350 350 349 349 349 348 348 349 349 348 347 347 347 346 346 346 346 345 345 346 346 346 344 342 340 339 340 341 342 342 343 344 345 344 343 341 339 340 342 345
350 351 351 349 349 349 349 349 349 349 349 348 348 348 347 346 346 347 346 346 346 346 346 346 345 342 341 340 341 341 341 342 343 345 346 346 344 341 340 339 341 343
351 352 352 351 350 350 350 350 350 350 349 349 349 348 348 346 346 346 346 346 346 346 346 346 346 344 342 341 341 341 341 342 341 343 346 347 344 341 341 340 339 341
353 353 354 354 353 352 352 352 351 350 350 350 350 350 349 347 347 347 346 346 345 346 346 346 346 345 343 342 341 341 341 341 341 342 345 347 345 342 341 340 339 340
353 353 353 353 354 354 354 354 353 352 351 351 351 350 350 349 348 347 347 346 345 345 346 346 346 345 344 343 342 341 341 341 342 341 343 345 345 342 341 340 340 341
352 352 352 352 352 352 353 354 355 354 353 352 352 351 351 350 349 349 348 347 347 346 345 345 345 345 344 343 342 342 341 341 342 341 342 343 343 342 341 340 340 341
351 351 351 352 351 351 352 353 353 354 354 354 353 353 352 352 351 350 350 349 348 347 347 346 346 346 345 344 343 342 341 341 341 341 341 342 342 341 341 340 340 340
351 351 352 353 352 351 351 352 351 353 354 353 353 354 354 353 353 352 352 351 350 349 348 347 347 347 346 346 345 343 342 340 340 341 342 342 342 343 343 341 341 340
351 352 352 353 354 352 351 352 351 351 352 352 353 353 353 353 354 353 354 353 352 351 350 349 349 349 348 348 347 345 344 342 340 341 342 342 343 344 345 345 343 342
Wind_Speed
34 33 32 31 29 28 27 27 25 24 22 20 18 18 18 16 15 14 15 16 15 14 14 13 11 9 8 8 7 6 6 5 4 4 4 4 4 3 4 4 4 4
35 34 33 32 31 30 29 29 27 26 25 22 20 19 18 17 15 15 15 15 16 16 15 14 13 11 10 9 9 8 8 8 6 5 4 4 4 4 4 4 4 4
35 34 34 33 32 31 29 29 28 27 26 24 22 20 19 19 17 16 15 15 16 17 16 15 14 13 11 10 10 10 10 10 8 7 5 4 3 4 4 4 4 4
37 36 35 34 32 31 30 29 29 27 26 25 24 22 20 20 19 17 16 15 16 17 17 16 16 15 14 12 11 11 11 11 11 10 7 6 5 5 5 5 5 5
38 38 36 35 33 33 32 30 30 29 28 27 26 24 22 21 19 19 18 17 16 16 17 17 17 16 15 14 13 12 12 11 12 12 10 9 8 6 6 6 7 6
38 38 38 36 35 34 33 32 32 31 30 28 27 26 25 23 21 20 19 18 17 16 16 17 18 18 17 15 14 14 13 11 11 13 13 12 10 9 7 8 8 8
36 37 38 37 35 34 34 34 33 33 32 30 28 27 27 25 24 22 21 20 18 17 17 17 17 18 18 17 16 15 15 13 13 14 14 13 12 11 10 10 10 10
32 33 36 36 33 32 33 34 34 34 33 32 30 29 28 28 27 25 24 22 21 20 19 18 18 17 17 18 17 17 16 15 15 15 15 15 14 14 13 12 12 12
30 30 33 34 32 31 31 32 32 34 34 33 32 29 28 29 28 27 27 25 24 23 22 21 20 19 18 18 18 18 17 16 15 16 17 16 15 15 14 14 14 14
29 29 29 30 31 30 30 30 29 29 32 34 32 29 28 30 29 29 28 27 25 24 24 23 23 22 20 20 19 18 18 18 17 17 18 17 16 16 15 15 15 15
29 28 27 29 30 29 29 29 27 25 29 33 32 29 28 30 30 30 29 29 27 26 25 25 24 23 22 21 20 20 19 18 18 18 19 18 19 18 18 18 17 17
28 28 28 29 30 29 27 27 27 25 26 30 32 30 29 29 29 31 31 30 30 28 26 26 24 24 23 22 21 21 21 20 20 20 20 20 20 20 20 20 20 19
28 29 29 28 29 30 28 26 27 27 26 28 31 31 30 28 27 30 32 32 31 30 28 27 26 25 25 24 24 23 23 23 22 22 22 22 22 22 21 21 21 21
28 28 28 28 29 31 32 30 27 27 27 28 30 32 32 30 28 29 33 34 33 32 31 29 28 28 28 27 27 26 25 25 25 25 24 23 23 23 22 22 22 22
27 25 25 27 30 34 36 34 29 27 28 29 30 31 31 29 29 28 30 34 34 34 33 32 31 31 31 31 30 29 28 27 27 27 26 25 25 24 23 23 23 23
27 28 27 27 33 37 38 37 33 28 27 28 30 31 30 29 30 28 27 30 33 35 35 34 34 34 34 34 32 31 30 29 29 29 28 27 27 26 25 25 24 24
30 33 33 32 35 39 38 38 36 30 27 29 31 31 31 31 31 29 27 26 27 31 33 33 35 37 37 36 35 33 32 31 31 31 30 29 29 28 27 26 25 25
32 33 35 37 37 38 38 38 37 32 30 31 31 31 32 32 29 29 30 28 25 26 28 30 34 38 39 38 38 36 35 33 32 31 30 29 29 30 30 29 27 25
34 31 34 37 37 38 38 37 36 34 33 33 32 30 30 32 31 30 31 31 28 26 27 28 32 37 40 40 39 38 37 35 34 31 29 29 30 31 31 31 30 28
30 28 31 35 36 37 35 33 33 34 34 31 28 27 28 33 34 30 31 33 31 30 31 30 30 35 39 40 39 39 38 37 35 33 30 29 31 33 32 32 32 31
21 22 23 25 28 29 30 30 32 34 33 29 25 24 28 34 35 29 30 35 36 33 32 31 32 35 37 38 39 39 38 37 36 35 32 30 32 34 34 34 34 33
19 23 23 23 23 23 24 26 28 32 33 30 25 23 24 28 31 29 29 33 35 33 31 31 33 36 37 38 39 38 37 36 36 37 35 33 33 35 36 36 35 34
15 20 24 26 25 23 24 24 25 28 30 28 25 23 23 24 26 28 29 30 30 30 32 34 36 38 38 38 38 37 36 36 36 37 37 36 36 37 37 37 37 37
11 15 18 21 23 25 26 25 24 24 25 27 26 25 25 25 25 25 26 27 27 29 32 35 36 37 38 38 38 37 36 37 37 37 37 38 38 38 39 39 38 38
8 11 13 15 19 25 27 27 27 25 23 25 26 26 26 25 24 23 24 25 26 28 31 34 34 34 35 37 37 37 36 37 38 37 36 37 38 37 38 40 41 40
6 8 11 13 17 24 29 30 30 27 24 25 26 28 28 26 24 24 25 25 26 27 29 31 33 34 34 36 36 36 36 37 37 37 37 38 37 36 34 35 38 40
Wind_Direction
218 220 221 224 226 227 229 231 232 233 234 237 239 237 236 237 237 235 233 231 228 227 227 223 221 220 224 229 229 231 238 242 258 283 304 304 288 270 259 259 262 267
218 220 222 224 226 228 230 231 232 234 235 238 241 241 240 240 240 239 238 235 232 231 231 228 223 220 223 231 234 235 238 241 253 275 300 304 287 269 255 256 259 262
217 220 222 223 226 228 228 229 231 234 236 238 241 243 243 243 244 243 242 240 237 235 234 231 226 224 226 232 237 240 241 242 247 259 279 288 280 271 256 249 254 254
217 220 222 223 225 227 227 228 230 232 234 236 239 242 243 244 246 246 246 245 242 240 238 235 231 230 232 235 239 243 244 246 246 248 259 266 267 272 261 247 248 249
218 220 221 222 224 226 228 229 231 232 233 235 237 240 241 244 246 246 246 247 245 244 243 240 237 235 236 237 238 243 247 249 248 246 249 255 260 266 262 253 249 250
217 219 221 222 224 227 228 230 232 233 234 235 236 238 240 242 244 245 245 246 247 247 246 244 243 240 239 240 240 242 245 246 249 249 248 252 256 257 258 258 256 256
216 218 220 222 224 226 228 230 232 233 235 235 236 238 239 240 242 243 243 245 247 249 249 249 248 244 243 244 245 245 247 249 252 253 249 249 254 255 255 258 260 261
214 216 219 221 221 223 226 228 231 234 234 234 235 238 239 239 240 242 244 244 245 248 251 252 253 251 247 246 248 249 250 250 252 254 251 250 254 257 258 260 264 265
210 212 217 218 218 220 223 225 229 232 234 234 234 235 237 238 238 240 243 244 245 247 249 250 253 254 252 250 251 252 251 250 251 254 253 251 253 256 259 261 264 266
209 211 212 214 215 217 221 223 224 227 231 234 233 231 234 238 237 237 240 243 245 247 247 248 250 252 253 253 253 254 254 252 252 255 255 255 255 256 258 260 262 264
209 210 210 211 214 216 219 221 220 221 227 232 231 228 230 236 236 235 237 240 242 245 246 247 247 250 251 252 253 254 254 253 252 254 256 258 260 261 262 263 263 264
209 209 210 212 214 216 218 219 218 218 223 230 231 228 229 232 234 235 236 237 240 243 245 246 247 248 249 249 250 251 252 252 252 254 257 259 262 263 264 266 266 266
209 209 210 211 214 216 217 217 219 219 220 226 230 230 229 229 229 234 237 238 240 242 243 245 246 246 247 248 249 250 251 251 250 252 256 259 262 263 263 264 266 266
210 210 211 212 214 218 220 219 218 220 221 224 228 230 231 229 227 232 237 239 241 242 244 245 245 245 246 247 248 249 250 250 250 251 253 255 260 263 263 262 264 265
209 209 210 213 216 221 225 223 220 220 222 224 227 229 230 229 228 229 234 238 240 242 243 244 245 245 246 247 247 248 248 248 248 250 251 252 257 260 261 263 264 264
209 211 212 213 219 224 227 227 225 222 222 224 227 230 229 230 230 228 229 234 237 239 241 242 243 245 247 248 248 248 248 246 247 249 250 252 255 257 259 261 263 264
212 216 218 219 224 227 227 228 227 223 222 225 227 229 230 231 231 230 229 230 232 235 238 238 241 244 247 248 249 248 248 247 247 250 251 252 254 256 257 258 260 262
215 217 221 223 226 227 227 228 227 223 222 225 227 228 229 229 229 229 230 229 228 230 232 234 239 244 247 248 249 248 248 246 247 248 250 250 252 254 256 258 258 258
217 216 220 224 226 227 226 225 224 223 223 225 226 225 226 228 227 227 229 229 226 226 229 230 236 243 246 247 248 249 248 247 245 245 246 247 250 253 255 257 258 257
219 218 220 224 225 225 225 223 222 224 225 225 224 220 221 227 228 225 227 230 228 228 230 232 235 241 246 247 247 248 248 247 245 244 243 244 248 252 254 256 257 258
221 223 226 228 229 226 224 223 224 226 226 223 220 218 220 227 228 224 226 232 232 230 231 234 236 240 244 246 247 247 247 246 245 243 242 243 247 251 253 254 256 256
225 225 226 229 233 233 231 227 224 227 228 224 220 220 222 227 227 224 226 231 232 230 230 233 238 240 242 244 247 246 244 243 243 242 242 243 246 251 253 254 255 254
241 235 230 228 228 228 233 236 232 230 229 226 224 223 224 224 224 225 227 229 229 228 229 233 239 241 242 243 245 244 241 239 239 240 241 243 246 249 252 253 254 254
256 249 243 239 233 228 230 235 241 240 234 229 227 226 227 227 227 227 229 229 227 228 231 235 240 243 244 243 244 242 239 237 238 238 239 242 245 248 250 252 254 254
265 254 247 243 241 238 234 232 239 246 245 238 234 232 232 232 230 228 230 230 229 230 233 236 240 243 245 245 245 242 239 237 236 236 237 239 242 245 247 250 252 254
282 268 251 238 236 240 240 236 234 236 239 240 241 242 241 238 233 231 232 232 230 231 234 236 238 242 245 246 246 243 240 237 235 233 235 238 240 241 243 245 249 252